{"data":{"norad_id":51110,"epoch":"2026-05-25T03:21:43.574688Z","epoch_age_seconds":65967,"freshness":"FRESH","line1":"1 51110U 22005G   26145.14008767  .00000561  00000+0  53370-4 0  9991","line2":"2 51110  53.2128 305.8981 0001689  89.1791 270.9395 15.08832879240422","mean_motion":15.08832879,"eccentricity":0.0001689,"inclination_deg":53.2128,"raan_deg":305.8981,"arg_perigee_deg":89.1791,"mean_anomaly_deg":270.9395,"bstar":5.337e-5,"rev_number":24042,"period_min":95.438005099304,"perigee_km":538.59672142391,"apogee_km":540.9335887719,"semimajor_km":6917.9021550979,"source":"CELESTRAK","updated_at":"2026-05-25T13:38:16.905756Z"}}